When you browse on this site, cookies collect data to enhance your experience and personalize the content and advertising you see.
Visit our Privacy Policy to learn more. By continuing to use the site, you agree to this use of cookies and data.

Météo par heure à Gloster

Ce jour, 2 Juillet, Jeudi

Heure Température Précipitation Vent Pression Humidité
00:00 +10°C° 0 mm 2 m/s 749 mmHg 96%
01:00 +10°C° 0 mm 2 m/s 749 mmHg 96%
02:00 +10°C° 0 mm 2 m/s 749 mmHg 96%
03:00 +10°C° 0 mm 2 m/s 749 mmHg 96%
04:00 +11°C° 0 mm 3 m/s 750 mmHg 95%
05:00 +12°C° 0 mm 3 m/s 750 mmHg 94%
06:00 +13°C° 0 mm 3 m/s 750 mmHg 92%
07:00 +14°C° 0.4 mm 3 m/s 750 mmHg 89%
08:00 +15°C° 0.4 mm 4 m/s 751 mmHg 87%
09:00 +17°C° 0.4 mm 4 m/s 751 mmHg 84%
10:00 +17°C° 0.8 mm 4 m/s 751 mmHg 82%
11:00 +18°C° 0.8 mm 4 m/s 752 mmHg 81%
12:00 +19°C° 0.8 mm 5 m/s 752 mmHg 79%
13:00 +19°C° 0.6 mm 4 m/s 752 mmHg 78%
14:00 +19°C° 0.6 mm 4 m/s 752 mmHg 78%
15:00 +20°C° 0.6 mm 4 m/s 752 mmHg 77%
16:00 +19°C° 0.4 mm 4 m/s 753 mmHg 80%
17:00 +18°C° 0.4 mm 3 m/s 753 mmHg 83%
18:00 +18°C° 0.4 mm 3 m/s 753 mmHg 86%
19:00 +16°C° 0.1 mm 3 m/s 754 mmHg 88%
20:00 +14°C° 0.1 mm 3 m/s 754 mmHg 90%
21:00 +13°C° 0.1 mm 3 m/s 755 mmHg 93%
22:00 +12°C° 0 mm 3 m/s 755 mmHg 93%
23:00 +12°C° 0 mm 3 m/s 755 mmHg 94%

Demain, 3 Juillet, Vendredi

Heure Température Précipitation Vent Pression Humidité
00:00 +12°C° 0 mm 2 m/s 755 mmHg 94%
01:00 +11°C° 0 mm 3 m/s 755 mmHg 95%
02:00 +11°C° 0 mm 3 m/s 755 mmHg 95%
03:00 +10°C° 0 mm 3 m/s 755 mmHg 95%
04:00 +11°C° 0 mm 4 m/s 755 mmHg 94%
05:00 +12°C° 0 mm 4 m/s 755 mmHg 93%
06:00 +12°C° 0 mm 5 m/s 755 mmHg 92%
07:00 +13°C° 0 mm 6 m/s 755 mmHg 89%
08:00 +14°C° 0 mm 7 m/s 755 mmHg 86%
09:00 +15°C° 0 mm 7 m/s 754 mmHg 82%
10:00 +15°C° 0 mm 8 m/s 754 mmHg 82%
11:00 +15°C° 0 mm 8 m/s 754 mmHg 82%
12:00 +15°C° 0 mm 8 m/s 754 mmHg 82%
13:00 +15°C° 0 mm 8 m/s 754 mmHg 83%
14:00 +16°C° 0 mm 9 m/s 754 mmHg 83%
15:00 +16°C° 0 mm 9 m/s 754 mmHg 84%
16:00 +16°C° 0.1 mm 8 m/s 754 mmHg 86%
17:00 +15°C° 0.1 mm 8 m/s 754 mmHg 87%
18:00 +15°C° 0.1 mm 7 m/s 753 mmHg 89%
19:00 +15°C° 0 mm 7 m/s 753 mmHg 90%
20:00 +15°C° 0 mm 7 m/s 753 mmHg 91%
21:00 +15°C° 0 mm 7 m/s 753 mmHg 91%
22:00 +15°C° 0.1 mm 7 m/s 753 mmHg 92%
23:00 +15°C° 0.1 mm 7 m/s 753 mmHg 93%

Après-demain, 4 Juillet, Samedi

Heure Température Précipitation Vent Pression Humidité
00:00 +16°C° 0.1 mm 7 m/s 753 mmHg 94%
01:00 +16°C° 0.1 mm 7 m/s 753 mmHg 94%
02:00 +16°C° 0.1 mm 7 m/s 753 mmHg 94%
03:00 +16°C° 0.1 mm 7 m/s 752 mmHg 94%
04:00 +16°C° 0.1 mm 7 m/s 752 mmHg 94%
05:00 +16°C° 0.1 mm 7 m/s 752 mmHg 94%
06:00 +16°C° 0.1 mm 7 m/s 752 mmHg 93%
07:00 +17°C° 0.2 mm 7 m/s 752 mmHg 94%
08:00 +17°C° 0.2 mm 7 m/s 752 mmHg 94%
09:00 +17°C° 0.2 mm 7 m/s 752 mmHg 94%
10:00 +17°C° 0.1 mm 7 m/s 752 mmHg 93%
11:00 +17°C° 0.1 mm 7 m/s 752 mmHg 92%
12:00 +18°C° 0.1 mm 7 m/s 752 mmHg 91%
13:00 +18°C° 0.1 mm 7 m/s 752 mmHg 90%
14:00 +18°C° 0.1 mm 7 m/s 752 mmHg 89%
15:00 +18°C° 0.1 mm 7 m/s 752 mmHg 88%
16:00 +18°C° 0 mm 7 m/s 752 mmHg 87%
17:00 +18°C° 0 mm 7 m/s 752 mmHg 86%
18:00 +17°C° 0 mm 7 m/s 752 mmHg 85%
19:00 +16°C° 0 mm 6 m/s 752 mmHg 86%
20:00 +16°C° 0 mm 5 m/s 753 mmHg 87%
21:00 +15°C° 0 mm 5 m/s 753 mmHg 89%
22:00 +15°C° 0 mm 6 m/s 752 mmHg 89%
23:00 +16°C° 0 mm 6 m/s 752 mmHg 90%

5 Juillet, Dimanche

Heure Température Précipitation Vent Pression Humidité
00:00 +16°C° 0 mm 7 m/s 752 mmHg 90%
01:00 +16°C° 0 mm 7 m/s 752 mmHg 90%
02:00 +16°C° 0 mm 8 m/s 751 mmHg 90%
03:00 +17°C° 0 mm 8 m/s 751 mmHg 89%
04:00 +17°C° 0.1 mm 8 m/s 751 mmHg 90%
05:00 +17°C° 0.1 mm 8 m/s 751 mmHg 91%
06:00 +17°C° 0.1 mm 8 m/s 750 mmHg 92%
07:00 +17°C° 0.2 mm 8 m/s 750 mmHg 91%
08:00 +17°C° 0.2 mm 9 m/s 751 mmHg 91%
09:00 +17°C° 0.2 mm 9 m/s 751 mmHg 90%
10:00 +18°C° 0.1 mm 9 m/s 751 mmHg 87%
11:00 +18°C° 0.1 mm 9 m/s 751 mmHg 84%
12:00 +18°C° 0.1 mm 9 m/s 751 mmHg 81%
13:00 +18°C° 0.2 mm 9 m/s 751 mmHg 79%
14:00 +18°C° 0.2 mm 9 m/s 752 mmHg 77%
15:00 +18°C° 0.2 mm 9 m/s 752 mmHg 74%
16:00 +18°C° 0 mm 8 m/s 752 mmHg 74%
17:00 +17°C° 0 mm 8 m/s 752 mmHg 74%
18:00 +16°C° 0 mm 7 m/s 752 mmHg 74%
19:00 +15°C° 0 mm 6 m/s 753 mmHg 75%
20:00 +14°C° 0 mm 6 m/s 753 mmHg 76%
21:00 +12°C° 0 mm 5 m/s 754 mmHg 77%
22:00 +12°C° 0 mm 5 m/s 754 mmHg 78%
23:00 +12°C° 0 mm 5 m/s 754 mmHg 80%

6 Juillet, Lundi

Heure Température Précipitation Vent Pression Humidité
00:00 +12°C° 0 mm 5 m/s 754 mmHg 81%
01:00 +10°C° 0 mm 5 m/s 754 mmHg 83%
02:00 +9°C° 0 mm 5 m/s 754 mmHg 84%
03:00 +9°C° 0 mm 5 m/s 754 mmHg 86%
04:00 +9°C° 0 mm 5 m/s 754 mmHg 84%
05:00 +10°C° 0 mm 6 m/s 754 mmHg 82%
06:00 +10°C° 0 mm 6 m/s 754 mmHg 81%
07:00 +13°C° 0 mm 6 m/s 754 mmHg 77%
08:00 +14°C° 0 mm 7 m/s 755 mmHg 73%
09:00 +15°C° 0 mm 7 m/s 755 mmHg 69%
10:00 +15°C° 0.1 mm 7 m/s 756 mmHg 68%
11:00 +15°C° 0.1 mm 7 m/s 756 mmHg 68%
12:00 +15°C° 0.1 mm 6 m/s 756 mmHg 68%
13:00 +16°C° 0 mm 6 m/s 756 mmHg 67%
14:00 +16°C° 0 mm 6 m/s 757 mmHg 66%
15:00 +17°C° 0 mm 6 m/s 757 mmHg 65%
16:00 +17°C° 0.1 mm 6 m/s 757 mmHg 67%
17:00 +16°C° 0.1 mm 5 m/s 757 mmHg 70%
18:00 +16°C° 0.1 mm 5 m/s 758 mmHg 73%
19:00 +14°C° 0 mm 4 m/s 758 mmHg 77%
20:00 +12°C° 0 mm 3 m/s 759 mmHg 82%
21:00 +12°C° 0 mm 2 m/s 759 mmHg 86%
22:00 +10°C° 0 mm 2 m/s 759 mmHg 87%
23:00 +9°C° 0 mm 2 m/s 760 mmHg 88%

7 Juillet, Mardi

Heure Température Précipitation Vent Pression Humidité
00:00 +9°C° 0 mm 2 m/s 760 mmHg 89%
01:00 +8°C° 0 mm 2 m/s 760 mmHg 90%
02:00 +8°C° 0 mm 2 m/s 760 mmHg 90%
03:00 +7°C° 0 mm 2 m/s 761 mmHg 91%
04:00 +8°C° 0 mm 2 m/s 761 mmHg 88%
05:00 +9°C° 0 mm 2 m/s 761 mmHg 86%
06:00 +10°C° 0 mm 2 m/s 761 mmHg 84%
07:00 +11°C° 0 mm 3 m/s 762 mmHg 79%
08:00 +12°C° 0 mm 3 m/s 762 mmHg 74%
09:00 +14°C° 0 mm 4 m/s 762 mmHg 69%
10:00 +14°C° 0 mm 3 m/s 762 mmHg 67%
11:00 +16°C° 0 mm 3 m/s 762 mmHg 66%
12:00 +17°C° 0 mm 3 m/s 762 mmHg 64%
13:00 +17°C° 0 mm 3 m/s 762 mmHg 64%
14:00 +17°C° 0 mm 3 m/s 762 mmHg 64%
15:00 +18°C° 0 mm 3 m/s 762 mmHg 64%
16:00 +17°C° 0 mm 3 m/s 762 mmHg 66%
17:00 +17°C° 0 mm 3 m/s 762 mmHg 69%
18:00 +17°C° 0 mm 3 m/s 762 mmHg 72%
19:00 +15°C° 0 mm 2 m/s 762 mmHg 77%
20:00 +14°C° 0 mm 2 m/s 762 mmHg 82%
21:00 +12°C° 0 mm 2 m/s 762 mmHg 87%
22:00 +11°C° 0 mm 1 m/s 762 mmHg 87%
23:00 +11°C° 0 mm 1 m/s 762 mmHg 87%
Voir plus